Location: Rancho Del Sol Observatory
(38.7214°N, 120.6350°W)
Time: 04:54:49
(UTC-08:00)

A-11 Canister half - Pass Details

Date: 25 January 2020
Orbit: 1517 x 1683 km, 47.2° (Epoch: 28 February)

Event Time Altitude Azimuth Distance (km) Brightness Sun altitude
Exits shadow 02:57:16 34° 57° (ENE) 2,319 10.1 -49.8°
Drops below altitude 10° 03:02:20 10° 78° (ENE) 3,690 11.5 -48.8°
Sets 03:05:33 0° 84° (E) 4,683 12.2 -48.2°
